• în Republica Moldova
  • Lista ţărilor
  • Pe 7 zile
  • Temperatura apei
  • Hartă satelitară
  • Meteo pe hartă
  • Widget-uri
  • user-avatar
    Intrare

    Meteo pe oră la Algiers

    Astăzi, 22 Septembrie, Vineri

    Timp Temperatura Precipitaţii Vânt Presiune Umiditate
    00:00 +27°C° 0 mm 5 m/s 748 mmHg 40%
    01:00 +27°C° 0 mm 4 m/s 748 mmHg 40%
    02:00 +26°C° 0 mm 4 m/s 748 mmHg 41%
    03:00 +26°C° 0 mm 4 m/s 748 mmHg 42%
    04:00 +26°C° 0 mm 4 m/s 748 mmHg 42%
    05:00 +25°C° 0 mm 4 m/s 748 mmHg 42%
    06:00 +25°C° 0 mm 3 m/s 749 mmHg 42%
    07:00 +27°C° 0 mm 3 m/s 749 mmHg 37%
    08:00 +29°C° 0 mm 3 m/s 749 mmHg 33%
    09:00 +31°C° 0 mm 3 m/s 750 mmHg 28%
    10:00 +33°C° 0 mm 3 m/s 749 mmHg 26%
    11:00 +34°C° 0 mm 4 m/s 749 mmHg 24%
    12:00 +35°C° 0 mm 4 m/s 749 mmHg 23%
    13:00 +35°C° 0 mm 5 m/s 749 mmHg 26%
    14:00 +35°C° 0 mm 5 m/s 749 mmHg 29%
    15:00 +34°C° 0 mm 5 m/s 749 mmHg 31%
    16:00 +33°C° 0 mm 5 m/s 749 mmHg 38%
    17:00 +32°C° 0 mm 5 m/s 749 mmHg 44%
    18:00 +29°C° 0 mm 4 m/s 749 mmHg 50%
    19:00 +29°C° 0 mm 4 m/s 749 mmHg 51%
    20:00 +29°C° 0 mm 4 m/s 750 mmHg 53%
    21:00 +29°C° 0 mm 4 m/s 750 mmHg 54%
    22:00 +29°C° 0 mm 4 m/s 750 mmHg 50%
    23:00 +29°C° 0 mm 4 m/s 750 mmHg 46%

    Mâine, 23 Septembrie, Sâmbătă

    Timp Temperatura Precipitaţii Vânt Presiune Umiditate
    00:00 +29°C° 0 mm 4 m/s 749 mmHg 41%
    01:00 +29°C° 0 mm 4 m/s 749 mmHg 41%
    02:00 +28°C° 0 mm 4 m/s 749 mmHg 41%
    03:00 +28°C° 0 mm 4 m/s 749 mmHg 41%
    04:00 +28°C° 0 mm 4 m/s 749 mmHg 41%
    05:00 +27°C° 0 mm 4 m/s 749 mmHg 41%
    06:00 +27°C° 0 mm 4 m/s 749 mmHg 41%
    07:00 +29°C° 0 mm 4 m/s 749 mmHg 36%
    08:00 +32°C° 0 mm 4 m/s 750 mmHg 30%
    09:00 +34°C° 0 mm 4 m/s 750 mmHg 25%
    10:00 +35°C° 0 mm 5 m/s 750 mmHg 23%
    11:00 +36°C° 0 mm 5 m/s 750 mmHg 21%
    12:00 +37°C° 0 mm 5 m/s 750 mmHg 19%
    13:00 +37°C° 0 mm 5 m/s 749 mmHg 22%
    14:00 +36°C° 0 mm 5 m/s 749 mmHg 25%
    15:00 +36°C° 0 mm 5 m/s 749 mmHg 27%
    16:00 +34°C° 0 mm 5 m/s 749 mmHg 35%
    17:00 +32°C° 0 mm 4 m/s 749 mmHg 43%
    18:00 +29°C° 0 mm 3 m/s 749 mmHg 50%
    19:00 +29°C° 0 mm 3 m/s 749 mmHg 53%
    20:00 +28°C° 0 mm 3 m/s 750 mmHg 57%
    21:00 +27°C° 0 mm 3 m/s 750 mmHg 60%
    22:00 +27°C° 0 mm 3 m/s 750 mmHg 62%
    23:00 +26°C° 0 mm 3 m/s 750 mmHg 64%

    Poimâine, 24 Septembrie, Duminică

    Timp Temperatura Precipitaţii Vânt Presiune Umiditate
    00:00 +26°C° 0 mm 3 m/s 750 mmHg 66%
    01:00 +25°C° 0 mm 3 m/s 750 mmHg 70%
    02:00 +25°C° 0 mm 3 m/s 750 mmHg 74%
    03:00 +24°C° 0 mm 3 m/s 750 mmHg 78%
    04:00 +24°C° 0 mm 3 m/s 750 mmHg 81%
    05:00 +24°C° 0 mm 2 m/s 750 mmHg 84%
    06:00 +23°C° 0 mm 2 m/s 750 mmHg 86%
    07:00 +25°C° 0 mm 2 m/s 750 mmHg 78%
    08:00 +26°C° 0 mm 2 m/s 751 mmHg 70%
    09:00 +28°C° 0 mm 2 m/s 751 mmHg 62%
    10:00 +29°C° 0 mm 2 m/s 751 mmHg 57%
    11:00 +30°C° 0 mm 3 m/s 751 mmHg 52%
    12:00 +31°C° 0 mm 3 m/s 751 mmHg 46%
    13:00 +31°C° 0 mm 3 m/s 751 mmHg 48%
    14:00 +31°C° 0 mm 3 m/s 751 mmHg 49%
    15:00 +30°C° 0 mm 3 m/s 751 mmHg 50%
    16:00 +29°C° 0 mm 3 m/s 751 mmHg 56%
    17:00 +28°C° 0 mm 3 m/s 750 mmHg 62%
    18:00 +27°C° 0 mm 3 m/s 750 mmHg 68%
    19:00 +26°C° 0 mm 3 m/s 751 mmHg 71%
    20:00 +26°C° 0 mm 3 m/s 751 mmHg 75%
    21:00 +25°C° 0 mm 2 m/s 751 mmHg 79%
    22:00 +25°C° 0 mm 2 m/s 751 mmHg 80%
    23:00 +24°C° 0 mm 2 m/s 751 mmHg 80%

    25 Septembrie, Luni

    Timp Temperatura Precipitaţii Vânt Presiune Umiditate
    00:00 +24°C° 0 mm 2 m/s 751 mmHg 81%
    01:00 +24°C° 0 mm 2 m/s 750 mmHg 79%
    02:00 +24°C° 0 mm 1 m/s 750 mmHg 77%
    03:00 +23°C° 0 mm 1 m/s 750 mmHg 76%
    04:00 +23°C° 0 mm 1 m/s 750 mmHg 73%
    05:00 +23°C° 0 mm 1 m/s 750 mmHg 70%
    06:00 +23°C° 0 mm 1 m/s 750 mmHg 67%
    07:00 +25°C° 0 mm 1 m/s 750 mmHg 58%
    08:00 +27°C° 0 mm 1 m/s 751 mmHg 48%
    09:00 +29°C° 0 mm 1 m/s 751 mmHg 38%
    10:00 +30°C° 0 mm 1 m/s 751 mmHg 36%
    11:00 +31°C° 0 mm 2 m/s 751 mmHg 33%
    12:00 +32°C° 0 mm 2 m/s 750 mmHg 30%
    13:00 +32°C° 0 mm 2 m/s 750 mmHg 31%
    14:00 +32°C° 0 mm 2 m/s 750 mmHg 33%
    15:00 +32°C° 0 mm 2 m/s 750 mmHg 34%
    16:00 +30°C° 0 mm 2 m/s 750 mmHg 40%
    17:00 +29°C° 0 mm 2 m/s 750 mmHg 46%
    18:00 +27°C° 0 mm 2 m/s 750 mmHg 52%
    19:00 +27°C° 0 mm 1 m/s 750 mmHg 55%
    20:00 +26°C° 0 mm 1 m/s 750 mmHg 57%
    21:00 +25°C° 0 mm 1 m/s 750 mmHg 59%
    22:00 +25°C° 0 mm 1 m/s 750 mmHg 58%
    23:00 +25°C° 0 mm 1 m/s 750 mmHg 56%

    26 Septembrie, Marţi

    Timp Temperatura Precipitaţii Vânt Presiune Umiditate
    00:00 +25°C° 0 mm 1 m/s 750 mmHg 55%
    01:00 +25°C° 0 mm 1 m/s 750 mmHg 53%
    02:00 +24°C° 0 mm 1 m/s 749 mmHg 51%
    03:00 +24°C° 0 mm 1 m/s 749 mmHg 49%
    04:00 +24°C° 0 mm 1 m/s 749 mmHg 48%
    05:00 +24°C° 0 mm 1 m/s 749 mmHg 47%
    06:00 +23°C° 0 mm 1 m/s 750 mmHg 46%
    07:00 +26°C° 0 mm 1 m/s 750 mmHg 39%
    08:00 +28°C° 0 mm 1 m/s 750 mmHg 32%
    09:00 +30°C° 0 mm 1 m/s 750 mmHg 26%
    10:00 +31°C° 0 mm 2 m/s 750 mmHg 24%
    11:00 +32°C° 0 mm 2 m/s 750 mmHg 23%
    12:00 +34°C° 0 mm 3 m/s 750 mmHg 21%
    13:00 +34°C° 0 mm 3 m/s 749 mmHg 23%
    14:00 +34°C° 0 mm 4 m/s 749 mmHg 25%
    15:00 +34°C° 0 mm 4 m/s 749 mmHg 27%
    16:00 +32°C° 0 mm 4 m/s 749 mmHg 33%
    17:00 +29°C° 0 mm 4 m/s 749 mmHg 40%
    18:00 +28°C° 0 mm 4 m/s 749 mmHg 46%
    19:00 +27°C° 0 mm 4 m/s 750 mmHg 49%
    20:00 +27°C° 0 mm 4 m/s 750 mmHg 52%
    21:00 +26°C° 0 mm 3 m/s 750 mmHg 55%
    22:00 +26°C° 0 mm 3 m/s 750 mmHg 55%
    23:00 +25°C° 0 mm 3 m/s 750 mmHg 55%

    27 Septembrie, Miercuri

    Timp Temperatura Precipitaţii Vânt Presiune Umiditate
    00:00 +25°C° 0 mm 3 m/s 750 mmHg 55%
    01:00 +25°C° 0 mm 3 m/s 750 mmHg 54%
    02:00 +25°C° 0 mm 3 m/s 749 mmHg 53%
    03:00 +24°C° 0 mm 3 m/s 749 mmHg 51%
    04:00 +24°C° 0 mm 3 m/s 750 mmHg 51%
    05:00 +24°C° 0 mm 3 m/s 750 mmHg 51%
    06:00 +24°C° 0 mm 3 m/s 750 mmHg 51%
    07:00 +26°C° 0 mm 3 m/s 750 mmHg 45%
    08:00 +28°C° 0 mm 4 m/s 750 mmHg 39%
    09:00 +30°C° 0 mm 4 m/s 751 mmHg 33%
    10:00 +32°C° 0 mm 4 m/s 751 mmHg 31%
    11:00 +33°C° 0 mm 5 m/s 751 mmHg 29%
    12:00 +34°C° 0 mm 5 m/s 750 mmHg 28%
    13:00 +34°C° 0 mm 6 m/s 750 mmHg 29%
    14:00 +34°C° 0 mm 6 m/s 750 mmHg 30%
    15:00 +34°C° 0 mm 6 m/s 750 mmHg 32%
    16:00 +32°C° 0 mm 6 m/s 750 mmHg 38%
    17:00 +29°C° 0 mm 6 m/s 750 mmHg 45%
    18:00 +28°C° 0 mm 5 m/s 750 mmHg 52%
    19:00 +27°C° 0 mm 5 m/s 750 mmHg 56%
    20:00 +26°C° 0 mm 5 m/s 751 mmHg 59%
    21:00 +26°C° 0 mm 5 m/s 751 mmHg 63%
    22:00 +25°C° 0 mm 5 m/s 751 mmHg 64%
    23:00 +25°C° 0 mm 4 m/s 751 mmHg 64%
    Arată mai mult